Ravenna, OH

8:29 PM EST on December 16, 2017 (GMT -0500)
Ravenna

Weather History for KPOV - July, 2013

Change the Weather History Date:

Tuesday, July 9, 2013

  Actual Average (KCAK) Record (KCAK)
Temperature  
Mean Temperature 76 °F -  
Max Temperature 85 °F 83 °F 101 °F (1936)
Min Temperature 67 °F 63 °F 43 °F (1963)
Cooling Degree Days 11    
Growing Degree Days 26 (Base 50)    
Moisture  
Dew Point 71 °F    
Average Humidity 91    
Maximum Humidity 100    
Minimum Humidity 59    
Precipitation  
Precipitation 1.01 in - - ()
Sea Level Pressure  
Sea Level Pressure 30.03 in    
Wind  
Wind Speed 3 mph (SW)    
Max Wind Speed 18 mph    
Max Gust Speed 28 mph    
Visibility 8 miles    
Events Rain    
Averages and records for this station are not official NWS values.
T = Trace of Precipitation, MM = Missing Value Source: NWS Daily Summary

Daily Weather History Graph

Daily Weather History Graph

Search for Another Location

Airport or City:

Trip Planner

Search our weather history database for the weather conditions in past years. The results will help you decide how hot, cold, wet, or windy it might be!

Date:

Astronomy

Jul. 09, 2013 Rise Set
Actual Time 6:00 AM EDT 8:59 PM EDT
Civil Twilight 5:27 AM EDT 9:32 PM EDT
Nautical Twilight 4:45 AM EDT 10:14 PM EDT
Astronomical Twilight 3:56 AM EDT 11:03 PM EDT
Moon 7:25 AM EDT (7/9) 9:34 PM EDT (7/9)
Length of Visible Light 16h 04m
Length of Day
14h 58m
New Moon, 2% of the Moon is Illuminated
Jul 9
New Moon
Jul 15
First Quarter
Jul 22
Full
Jul 29
Last Quarter
Aug 6
New

Hourly Weather History & Observations

Time (EDT) Temp. Heat Index Dew Point Humidity Pressure Visibility Wind Dir Wind Speed Gust Speed Precip Events Conditions
12:13 AM 67.1 °F - 67.3 °F 100% 30.10 in 7.0 mi Calm Calm - 0.01 in Rain Rain
12:33 AM 67.5 °F - 67.6 °F 100% 30.11 in 4.0 mi Calm Calm - 0.05 in Rain Heavy Rain
12:53 AM 67.1 °F - 67.3 °F 100% 30.10 in 3.0 mi Calm Calm - 0.27 in Rain Rain
1:13 AM 67.3 °F - 67.5 °F 100% 30.09 in 7.0 mi Calm Calm - N/A   Overcast
1:33 AM 67.5 °F - 67.6 °F 100% 30.09 in 7.0 mi Calm Calm - N/A   Overcast
1:53 AM 67.5 °F - 67.6 °F 100% 30.09 in 7.0 mi Calm Calm - 0.01 in   Overcast
2:13 AM 67.5 °F - 67.6 °F 100% 30.08 in 7.0 mi Calm Calm - N/A   Overcast
2:33 AM 67.6 °F - 68.0 °F 100% 30.08 in 7.0 mi Calm Calm - N/A   Overcast
2:53 AM 67.6 °F - 68.0 °F 100% 30.06 in 5.0 mi Calm Calm - N/A   Overcast
3:13 AM 67.6 °F - 68.0 °F 100% 30.06 in 7.0 mi SSE 3.5 mph - N/A   Mostly Cloudy
3:33 AM 68.0 °F - 68.0 °F 100% 30.05 in 7.0 mi Calm Calm - N/A   Mostly Cloudy
3:53 AM 68.0 °F - 68.2 °F 100% 30.05 in 7.0 mi Calm Calm - N/A   Overcast
4:13 AM 68.2 °F - 68.4 °F 100% 30.05 in 7.0 mi Calm Calm - N/A   Overcast
4:33 AM 68.2 °F - 68.4 °F 100% 30.05 in 5.0 mi Calm Calm - N/A   Overcast
4:53 AM 68.4 °F - 68.5 °F 100% 30.04 in 5.0 mi Calm Calm - N/A Rain Rain
5:13 AM - - - N/A% 30.04 in 7.0 mi SSE 3.5 mph - N/A   Overcast
5:34 AM - - - N/A% 30.04 in 5.0 mi Calm Calm - N/A Rain Rain
5:53 AM 68.9 °F - 69.1 °F 100% 30.04 in 7.0 mi SSW 3.5 mph - N/A   Overcast
6:13 AM 69.1 °F - 69.3 °F 100% 30.04 in 7.0 mi SW 3.5 mph - N/A   Overcast
6:33 AM 69.1 °F - 69.3 °F 100% 30.04 in 5.0 mi SW 4.6 mph - N/A   Overcast
6:54 AM 69.3 °F - 69.4 °F 100% 30.04 in 7.0 mi SW 4.6 mph - N/A   Overcast
7:13 AM 70.0 °F - 70.2 °F 100% 30.04 in 7.0 mi SW 4.6 mph - N/A   Overcast
7:33 AM 70.2 °F - 70.3 °F 100% 30.04 in 10.0 mi SW 4.6 mph - N/A   Overcast
7:53 AM 70.2 °F - 70.3 °F 100% 30.04 in 10.0 mi SW 4.6 mph - N/A   Overcast
8:13 AM 70.5 °F - 70.5 °F 100% 30.04 in 7.0 mi SW 4.6 mph - N/A   Overcast
8:33 AM 70.7 °F - 70.7 °F 100% 30.04 in 7.0 mi Calm Calm - N/A   Overcast
8:53 AM 71.1 °F - 71.2 °F 100% 30.04 in 5.0 mi Calm Calm - N/A   Overcast
9:14 AM 71.4 °F - 71.4 °F 100% 30.04 in 5.0 mi Calm Calm - N/A   Overcast
9:33 AM - - - N/A% 30.03 in 5.0 mi Calm Calm - N/A   Overcast
9:54 AM 72.5 °F - 72.5 °F 100% 30.04 in 5.0 mi SSW 3.5 mph - N/A   Overcast
10:14 AM 73.0 °F - 73.2 °F 100% 30.04 in 5.0 mi SW 3.5 mph - N/A   Overcast
10:33 AM 73.6 °F - 73.8 °F 100% 30.04 in 5.0 mi SW 4.6 mph - N/A   Overcast
10:54 AM 74.3 °F - 74.3 °F 100% 30.04 in 5.0 mi SW 5.8 mph - N/A   Overcast
11:14 AM 74.5 °F - 74.7 °F 100% 30.04 in 5.0 mi SW 5.8 mph - N/A   Overcast
11:33 AM 74.8 °F - 74.8 °F 100% 30.05 in 5.0 mi SW 5.8 mph - N/A   Overcast
11:54 AM 77.0 °F - 76.1 °F 97% 30.04 in 7.0 mi SW 5.8 mph - N/A   Overcast
12:13 PM 77.4 °F - 75.6 °F 94% 30.04 in 7.0 mi SW 3.5 mph - N/A   Overcast
12:33 PM 76.8 °F - 76.1 °F 98% 30.04 in 7.0 mi Calm Calm - N/A   Overcast
12:53 PM 79.2 °F - 76.3 °F 91% 30.04 in 7.0 mi SSW 5.8 mph - N/A   Overcast
1:13 PM 79.9 °F - 75.7 °F 87% 30.04 in 7.0 mi SW 6.9 mph - N/A   Overcast
1:33 PM 80.2 °F 85.2 °F 74.7 °F 83% 30.03 in 10.0 mi SW 5.8 mph - N/A   Mostly Cloudy
1:54 PM 81.3 °F 86.8 °F 73.9 °F 78% 30.03 in 10.0 mi WSW 9.2 mph - N/A   Mostly Cloudy
2:13 PM 81.9 °F 87.0 °F 72.7 °F 74% 30.02 in 10.0 mi WSW 13.8 mph 18.4 mph N/A   Scattered Clouds
2:33 PM 81.9 °F 86.4 °F 71.8 °F 71% 30.03 in 10.0 mi WSW 9.2 mph - N/A   Mostly Cloudy
2:53 PM 82.9 °F 88.5 °F 72.5 °F 71% 30.02 in 10.0 mi West 10.4 mph - N/A   Mostly Cloudy
3:13 PM 84.0 °F 90.2 °F 73.0 °F 69% 30.02 in 10.0 mi WSW 8.1 mph 17.3 mph N/A   Scattered Clouds
3:33 PM 83.7 °F 88.6 °F 71.1 °F 66% 30.01 in 10.0 mi SW 8.1 mph - N/A   Scattered Clouds
3:53 PM 84.2 °F 89.0 °F 70.9 °F 64% 30.00 in 10.0 mi West 6.9 mph - N/A   Scattered Clouds
4:13 PM 84.4 °F 89.4 °F 70.9 °F 64% 29.99 in 10.0 mi West 6.9 mph - N/A   Mostly Cloudy
4:33 PM 84.7 °F 89.1 °F 70.0 °F 61% 29.98 in 10.0 mi West 9.2 mph - N/A   Mostly Cloudy
4:54 PM 84.9 °F 89.4 °F 70.2 °F 61% 29.97 in 10.0 mi West 6.9 mph - N/A   Scattered Clouds
5:14 PM 84.6 °F 89.1 °F 70.2 °F 62% 29.98 in 10.0 mi West 9.2 mph - N/A   Scattered Clouds
5:33 PM 85.1 °F 89.1 °F 69.4 °F 59% 29.97 in 10.0 mi WSW 10.4 mph - N/A   Scattered Clouds
5:53 PM 84.6 °F 89.1 °F 70.2 °F 62% 29.97 in 10.0 mi SW 5.8 mph - N/A   Scattered Clouds
6:14 PM 84.0 °F 89.0 °F 71.2 °F 65% 29.98 in 10.0 mi WSW 3.5 mph - N/A   Scattered Clouds
6:33 PM 83.5 °F 88.5 °F 71.4 °F 67% 29.97 in 10.0 mi SW 3.5 mph - N/A   Scattered Clouds
6:53 PM 81.3 °F 85.9 °F 72.5 °F 74% 29.96 in 10.0 mi Calm Calm - N/A   Scattered Clouds
7:13 PM 79.3 °F - 72.3 °F 79% 30.00 in 10.0 mi WSW 18.4 mph 27.6 mph N/A   Mostly Cloudy
7:33 PM 71.8 °F - 72.0 °F 100% 29.97 in 2.0 mi West 9.2 mph - 0.63 in Rain Heavy Rain
7:54 PM 71.1 °F - 71.4 °F 100% 29.96 in 7.0 mi Calm Calm - 0.70 in Rain Light Rain
8:13 PM 71.4 °F - 71.6 °F 100% 29.97 in 10.0 mi Calm Calm - N/A Rain Light Rain
8:33 PM 71.4 °F - 71.6 °F 100% 29.95 in 10.0 mi WNW 3.5 mph - 0.01 in Rain Light Rain
8:53 PM 71.8 °F - 71.8 °F 100% 29.96 in 10.0 mi WSW 3.5 mph - 0.01 in   Scattered Clouds
9:14 PM 71.2 °F - 71.6 °F 100% 30.01 in 7.0 mi SW 3.5 mph - N/A   Scattered Clouds
9:33 PM 71.8 °F - 72.0 °F 100% 30.01 in 7.0 mi SW 3.5 mph - N/A   Mostly Cloudy
9:53 PM 72.0 °F - 72.1 °F 100% 30.01 in 7.0 mi WSW 8.1 mph - 0.01 in Rain Rain
10:14 PM 71.6 °F - 71.8 °F 100% 30.01 in 7.0 mi WSW 5.8 mph - N/A Rain Light Rain
10:33 PM 71.1 °F - 71.2 °F 100% 30.01 in 10.0 mi WSW 6.9 mph - 0.01 in Rain Rain
10:53 PM 70.7 °F - 70.9 °F 100% 30.00 in 10.0 mi WSW 5.8 mph - 0.01 in   Light Drizzle
11:13 PM 70.7 °F - 70.7 °F 100% 30.00 in 10.0 mi WSW 5.8 mph - N/A Rain Light Rain
11:33 PM 70.7 °F - 70.7 °F 100% 30.00 in 10.0 mi WSW 6.9 mph - N/A   Mostly Cloudy
11:54 PM 70.7 °F - 70.7 °F 100% 30.00 in 10.0 mi SW 6.9 mph - N/A   Overcast